|
NORAD ID: 31103 Int'l Code: 2007-009B
Perigee: 325.6 km
Apogee: 17,203.4 km
Inclination: 49.4 °
Period: 308.9 minutes
Semi major axis: 15135 km
Launch date: April 9, 2007
Source: Commonwealth of Independent States (former USSR) (CIS)
Note: This is SATELLITE DEBRIS
Two Line Element Set (TLE):
1 31103U 07009B 13143.20194841 .00002330 00000-0 59563-3 0 1895
2 31103 049.4323 169.9487 5575561 163.6365 309.2314 04.66237779102751
Source:
NASA's NSSDC Master Catalog entry for BREEZE-M DEB (TANK)
|